User: anonymous   Login
Location: *
(2.5500°S, 65.9667°W)
Time: 01:35:24
(UTC+00:00)
Language:

Cosmos 2233 Rocket - Orbit

View from above orbital plane
View from above orbital plane
View from above satellite
View from above satellite

Ground track
Ground track

The orbit data is extracted from the following two-line orbital elements,

1 22488U 93008B   22018.46523733  .00000042  00000-0  26385-4 0  9994
2 22488  82.9423 270.9495 0024646 205.0667 327.8768 13.77746238454785
Epoch (UTC): 18 January 2022 11:09:56
Eccentricity: 0.0024646
inclination: 82.9423°
perigee height: 954 km
apogee height: 990 km
right ascension of ascending node: 270.9495°
argument of perigee: 205.0667°
revolutions per day: 13.77746238
mean anomaly at epoch: 327.8768°
orbit number at epoch: 45478

The dashed part of the orbit path shows where the satellite is in the earth's shadow,  

DLR